Tracking 29892 objects as of 21-Nov-2024
HD Live streaming from Space Station
objects crossing your sky now

SL-16 DEB

Track SL-16 DEB now!
10-day predictions


NORAD ID: 22436
Int'l Code: 1992-093ED
Perigee: 627.8 km
Apogee: 695.8 km
Inclination: 71.5 °
Period: 97.8 minutes
Semi major axis: 7032 km
RCS: 0.0129 m2 (small)
Launch date: December 25, 1992
Source: Commonwealth of Independent States (former USSR) (CIS)
Launch site: TYURATAM MISSILE AND SPACE COMPLEX (TTMTR)

Note: This is SATELLITE DEBRIS
Your satellite tracking list
Your tracking list is empty




NASA's NSSDC Master Catalog

Two Line Element Set (TLE):
1 22436U 92093ED  24325.15045043  .00013606  00000-0  21304-2 0  9996
2 22436  71.5100  13.1486 0048354 353.9000  37.7759 14.72021830680628
Source of the keplerian elements: AFSPC